Theta_e
322 323 323 322 322 322 322 321 321 321 320 321 320 319 318 317 317 318 317 319 321 323 322 322 321 321 321 323 323 323 324 324 324 324 324 323 323 321 317 322 325 325 325 325 326 329 328 330 329 329 327 325 325 325 325 325 325 325 324 324 324 323 322 321 321 321 320 319 319 318 318 317 317 316 316 316 316 316 315 316 315 315 315 316 316
322 322 322 321 321 321 321 321 321 321 320 319 320 318 318 316 315 316 318 321 323 323 320 322 322 321 321 323 324 324 323 323 324 323 322 321 322 323 315 318 323 324 325 325 326 331 332 328 328 327 326 325 325 324 324 324 324 324 323 323 323 323 322 321 320 320 319 318 318 318 317 316 316 316 316 315 315 315 315 315 315 315 315 315 315
322 322 321 321 321 320 319 320 319 320 320 319 319 317 316 316 318 321 322 322 323 321 320 321 322 323 322 323 324 322 322 323 324 322 320 322 322 321 323 315 318 321 322 324 325 327 329 331 327 326 326 326 324 324 324 324 324 324 323 322 322 322 321 321 320 319 318 318 317 317 316 316 315 315 315 315 315 315 314 314 314 315 314 314 314
322 322 321 320 320 319 319 318 318 319 318 318 317 317 316 317 317 319 320 320 321 320 319 320 323 323 322 323 323 322 323 323 323 322 321 322 323 322 322 322 313 317 318 321 324 326 327 329 327 326 325 324 324 324 323 323 323 323 323 322 322 322 321 321 320 319 318 317 317 316 316 315 314 315 314 314 314 314 313 313 314 313 313 313 313
322 321 320 320 320 319 319 318 319 320 318 317 317 317 316 316 318 318 319 319 319 322 319 317 319 323 322 323 321 322 321 322 323 322 321 321 321 321 321 322 321 313 312 315 320 325 327 327 326 326 325 324 324 324 323 323 322 323 322 322 322 321 321 321 320 319 318 317 316 316 315 315 314 314 314 314 313 313 313 313 313 313 313 313 313
323 322 322 322 321 321 322 321 322 321 320 318 317 318 318 318 321 320 319 320 322 322 321 322 322 321 321 322 320 322 321 321 322 322 321 320 321 319 319 318 318 320 319 312 314 319 325 327 326 325 323 324 324 323 323 322 322 321 322 322 322 322 321 320 319 318 318 317 316 315 315 314 314 313 313 313 313 312 312 312 313 313 313 312 312
323 323 322 322 322 322 321 322 323 321 321 320 321 320 320 321 321 321 321 320 320 320 320 321 322 323 324 321 322 320 318 320 321 321 320 320 319 318 317 317 317 318 318 320 312 313 318 326 326 324 323 323 323 323 323 322 321 321 321 322 322 322 322 320 319 318 317 317 316 315 314 314 313 313 312 312 312 312 312 312 312 312 312 312 312
323 323 323 322 322 322 323 323 322 322 322 320 320 321 321 320 320 321 322 322 320 321 320 320 321 321 323 320 321 318 319 319 320 321 320 319 319 317 316 317 317 317 314 319 319 316 314 320 324 324 325 324 323 322 322 322 321 321 321 322 321 321 321 320 319 318 317 316 316 315 314 313 313 312 312 312 312 312 312 312 312 312 311 311 311
323 323 323 323 322 322 323 323 322 322 322 320 320 322 321 320 320 319 321 323 321 320 320 319 320 320 320 319 320 319 318 319 320 321 320 318 318 316 315 315 315 309 314 316 318 318 313 314 318 318 319 321 323 322 322 322 322 322 321 321 320 320 319 319 318 318 316 315 315 314 313 313 312 312 311 311 311 311 311 311 311 311 311 311 310
323 323 322 323 323 323 324 323 322 322 322 321 321 321 320 320 321 320 319 319 320 320 320 320 318 319 320 319 319 318 318 318 319 315 319 318 317 315 314 314 314 313 311 313 314 315 317 314 313 312 312 317 321 322 322 321 321 321 321 320 319 319 318 318 318 317 316 315 314 314 313 312 312 311 311 311 310 310 310 310 310 310 310 310 310
323 322 321 322 322 322 323 323 322 321 321 320 320 319 319 319 319 320 316 318 320 321 321 320 319 318 318 319 318 317 317 316 316 317 318 318 317 315 313 312 313 312 310 310 310 310 312 313 315 316 317 313 320 321 322 322 321 321 321 321 320 320 318 318 317 317 316 315 314 314 313 312 311 311 310 310 310 310 310 310 310 310 310 310 309
323 323 322 322 321 322 322 322 321 321 320 319 319 319 318 318 317 318 318 316 314 316 315 316 317 317 318 319 318 317 314 314 315 317 318 318 317 315 312 311 312 312 308 307 306 308 311 312 312 314 315 313 313 316 317 318 319 321 322 322 321 320 319 318 317 316 316 315 314 313 313 312 311 311 310 310 309 309 309 310 309 309 309 309 309
322 323 322 320 322 323 322 322 322 320 320 321 322 321 321 321 320 318 318 317 317 315 314 316 317 317 319 317 318 316 312 312 314 317 317 318 317 315 313 310 311 312 309 307 306 307 308 309 310 310 311 314 313 309 312 313 314 318 322 322 322 321 320 319 318 316 315 315 314 313 312 312 311 310 310 310 310 309 310 309 309 309 309 309 309
322 323 323 323 322 321 321 322 321 320 321 322 321 319 320 319 318 317 315 318 318 317 315 317 314 314 314 316 317 319 314 310 311 313 314 316 316 315 312 310 310 312 309 306 306 305 304 306 307 307 308 309 311 312 313 312 313 316 320 322 322 322 321 320 319 317 315 315 315 313 312 312 311 310 310 310 310 310 310 309 309 309 309 308 308
323 322 322 322 322 322 322 322 322 321 319 319 319 319 319 319 318 318 317 314 316 314 315 318 319 312 313 312 311 311 315 313 312 311 312 314 314 314 312 309 309 311 309 306 306 304 304 304 304 304 305 305 306 307 309 307 310 310 315 318 320 322 321 320 319 318 316 315 314 313 312 312 311 311 310 310 309 309 309 309 309 308 308 308 308
323 322 322 323 323 322 323 322 322 322 321 320 319 319 319 319 318 318 319 317 314 315 315 318 320 315 312 312 311 309 308 312 315 315 310 312 312 313 313 309 308 309 308 306 305 304 304 303 302 302 302 302 302 303 305 307 307 307 309 310 311 317 321 321 320 319 317 315 314 313 313 312 311 310 310 310 309 309 309 309 309 308 308 308 308
323 323 322 322 323 323 323 323 322 322 321 320 320 320 320 320 319 318 317 317 317 318 315 316 318 321 320 312 310 306 307 313 308 313 307 310 309 310 309 310 307 306 307 306 306 304 303 301 300 300 299 298 298 299 301 303 305 306 307 303 305 311 316 321 320 319 318 316 315 314 313 312 310 310 310 310 309 309 309 309 309 308 308 308 308
323 323 322 321 322 322 322 322 322 322 320 321 322 322 321 320 319 320 318 319 319 318 317 313 316 318 320 321 319 314 313 309 310 310 307 308 307 308 309 308 309 306 306 306 306 304 301 300 299 298 297 296 295 295 297 300 301 304 306 307 308 310 312 316 320 320 319 318 316 315 313 312 311 311 310 309 309 309 308 308 308 308 308 308 308
322 322 323 322 322 322 322 322 322 322 321 320 320 320 321 321 321 319 320 319 318 316 317 318 314 314 316 318 319 319 319 314 310 307 307 307 305 306 306 306 306 306 305 304 305 305 303 301 299 297 296 295 294 294 295 296 298 300 303 305 309 311 312 313 315 318 319 317 316 315 314 313 312 311 310 309 309 308 308 308 308 308 308 308 308
322 322 322 322 321 322 322 322 321 322 321 320 321 321 321 322 321 321 320 320 319 317 317 319 316 316 314 314 315 317 318 317 315 312 311 308 308 304 303 304 304 304 305 306 304 304 305 303 300 298 296 295 294 293 293 294 296 299 300 305 307 309 312 312 313 313 316 316 316 314 313 313 312 311 310 309 309 308 308 308 308 308 307 307 307
322 322 322 322 320 321 322 321 321 321 320 321 321 321 321 321 319 318 318 318 319 319 319 319 318 318 316 314 315 315 316 315 314 312 309 308 309 311 308 300 300 302 304 305 306 305 304 304 303 300 298 296 295 294 293 293 294 297 299 303 306 308 310 310 311 312 312 313 314 314 314 313 312 311 311 310 309 308 308 307 308 308 307 307 307
320 321 321 322 322 321 321 321 321 321 319 320 320 320 320 320 321 320 319 319 319 319 318 320 321 321 320 319 314 313 313 312 311 311 310 310 307 307 309 307 307 309 306 304 304 305 304 303 302 302 301 298 296 295 294 292 292 295 297 300 304 307 309 309 310 310 310 310 311 312 312 312 312 312 311 310 309 308 308 308 307 308 308 307 307
319 319 321 321 321 321 321 321 322 321 319 320 319 320 320 320 321 321 319 319 319 319 318 319 320 320 320 320 319 317 316 314 313 312 311 309 307 307 310 312 311 312 313 307 305 305 305 304 302 302 302 301 299 296 295 294 292 292 293 297 301 306 307 309 311 310 309 309 309 309 309 309 310 311 310 310 309 308 308 308 307 307 307 307 306
318 318 318 320 320 321 320 321 320 321 320 321 321 321 321 321 320 320 319 319 320 319 320 319 318 319 319 320 319 320 319 318 318 318 315 313 312 312 312 312 308 309 312 306 303 304 304 303 302 302 302 302 301 298 295 294 293 291 291 294 300 305 307 309 312 311 310 308 307 307 307 306 307 307 308 308 308 307 308 308 308 307 306 307 306
317 318 318 319 319 319 320 319 320 320 321 322 322 322 321 321 320 320 320 320 320 320 320 320 320 319 319 321 321 321 320 320 321 319 318 317 315 312 313 313 309 311 312 308 307 302 303 304 304 303 303 302 302 300 297 294 293 292 291 292 297 302 304 306 309 311 310 309 308 307 306 306 306 306 306 306 306 307 307 307 307 307 306 306 306
318 318 320 320 319 320 320 321 322 322 322 323 323 323 322 322 322 321 321 321 322 321 321 321 321 321 321 321 321 320 320 321 321 320 318 316 312 311 310 308 309 309 306 298 297 300 301 300 303 303 303 302 302 301 297 294 293 292 291 292 294 299 303 306 308 309 310 309 308 307 306 306 306 306 305 306 306 306 306 306 307 306 306 306 305
320 321 321 321 320 320 320 321 322 323 323 323 323 324 323 323 322 323 322 323 322 322 321 321 321 320 320 320 320 320 321 321 321 320 320 318 317 315 311 308 307 303 303 302 298 300 308 306 301 302 302 301 301 301 298 295 293 292 291 292 293 294 300 304 306 307 309 309 308 307 306 305 305 306 305 304 305 305 305 306 305 305 305 305 304
321 321 321 321 321 321 320 320 322 322 323 323 324 323 324 323 323 323 322 323 323 322 322 322 321 321 321 321 320 320 322 322 321 320 320 319 317 316 314 312 308 305 300 300 302 308 305 305 303 301 301 300 301 300 297 296 294 293 291 293 293 293 296 301 304 306 307 307 308 307 306 305 305 305 304 304 303 303 303 303 303 303 302 302 300
320 320 321 321 322 322 322 322 322 322 322 323 323 323 323 323 322 322 322 323 321 322 322 322 322 322 321 321 321 321 321 321 321 319 319 318 317 316 315 313 312 307 304 297 299 306 305 303 305 304 299 301 300 300 298 296 295 293 293 292 291 291 293 298 302 303 304 304 306 307 307 305 305 304 303 303 303 302 302 301 300 300 300 300 300
320 319 320 319 320 317 321 321 322 322 322 322 322 322 322 322 322 322 323 323 323 322 322 322 322 322 320 321 321 320 320 319 319 320 319 318 316 316 315 315 314 309 309 306 306 308 309 299 301 305 298 298 299 299 297 296 294 293 293 292 291 291 293 296 299 300 302 303 304 306 306 305 305 304 303 302 302 302 302 301 300 300 300 300 300
318 318 318 318 318 318 320 321 321 321 321 322 322 321 321 321 320 321 321 322 321 320 320 319 320 320 319 319 320 319 319 318 318 318 317 316 316 316 315 315 313 312 311 309 305 306 309 308 302 301 300 298 298 297 295 295 293 292 293 292 291 291 290 293 296 300 301 302 303 304 306 306 305 304 303 302 302 302 301 301 300 299 300 299 299
318 318 318 317 317 317 317 318 319 319 319 320 320 320 320 320 320 319 318 318 318 318 317 317 318 318 317 315 315 314 315 314 313 311 312 312 313 314 314 313 312 312 311 308 305 306 305 306 303 297 297 296 295 294 294 292 292 290 293 292 290 289 290 292 293 296 298 299 301 302 303 304 303 303 303 302 302 302 301 300 300 299 299 298 298
316 316 316 316 317 316 317 316 317 317 318 318 319 319 319 318 316 317 316 315 315 315 314 313 312 314 313 313 312 311 310 311 309 307 308 311 310 310 310 309 308 308 307 305 304 304 304 292 294 293 293 294 291 293 293 291 290 291 290 291 290 289 289 289 290 292 295 298 299 301 302 302 301 301 301 301 301 300 300 299 299 298 297 297 296
313 315 315 315 315 316 316 316 315 316 316 318 317 317 315 315 314 315 314 312 312 312 310 311 309 308 308 308 307 307 307 308 306 306 307 306 305 305 305 304 306 307 306 304 302 302 302 298 294 291 293 294 293 291 292 291 291 289 289 289 288 288 287 288 288 289 293 296 297 299 300 300 299 299 298 298 299 299 299 298 297 296 295 295 294
310 313 313 313 313 314 314 314 315 314 315 315 315 314 314 314 313 313 313 311 310 309 308 308 308 308 306 306 307 306 304 304 304 304 303 303 303 304 305 303 302 303 300 300 299 296 298 298 297 296 292 291 293 291 290 291 291 289 289 289 287 287 287 288 287 288 290 293 295 297 298 298 298 298 297 297 297 296 295 295 295 294 294 294 293
309 308 309 311 311 311 311 311 311 312 312 312 311 310 313 311 310 312 310 309 309 309 309 308 308 305 305 303 303 303 300 301 301 300 301 301 301 301 300 299 298 299 296 293 297 298 294 297 295 293 290 290 289 290 290 289 288 288 289 289 288 287 287 286 286 286 287 291 293 295 295 296 296 296 296 296 295 295 294 294 293 293 293 292 291
308 306 304 305 307 308 308 309 309 309 310 309 310 308 308 308 310 310 309 307 306 306 306 305 301 303 302 302 302 300 299 299 297 296 298 296 297 295 296 295 293 293 292 292 292 293 294 294 294 290 289 290 290 290 288 288 288 287 286 286 286 286 286 286 285 285 286 288 290 292 293 294 294 295 295 295 294 294 293 293 292 292 292 291 291
305 304 305 302 303 305 306 308 309 308 307 307 307 308 306 304 305 306 305 303 302 301 300 300 299 299 300 299 299 298 298 298 299 298 296 296 294 294 293 292 291 291 292 291 291 292 293 294 293 294 291 292 289 288 287 287 287 286 285 285 285 285 285 284 284 284 284 284 285 288 290 292 293 293 293 294 294 293 293 292 292 291 291 290 290
304 302 301 302 301 304 304 305 306 306 305 304 304 305 304 303 303 302 299 298 298 297 297 297 297 297 297 297 296 295 297 297 299 298 295 294 293 293 294 292 291 291 291 291 291 292 292 293 293 293 293 291 290 290 285 286 287 287 286 286 285 285 284 283 283 284 283 283 285 286 288 289 289 290 291 292 293 292 292 291 291 291 290 290 289
303 302 302 302 300 300 302 302 303 301 303 302 302 301 301 301 299 298 297 297 296 294 293 292 292 293 293 293 293 295 296 296 297 297 294 294 293 293 291 291 291 292 291 290 290 291 292 292 292 291 290 290 287 284 284 284 284 285 285 285 285 286 284 283 284 284 284 283 283 284 285 286 287 289 289 290 290 291 290 290 290 289 289 289 288
300 301 302 302 297 296 294 296 297 296 299 301 300 299 298 296 298 298 297 296 294 293 292 291 290 290 291 292 292 292 293 291 290 292 293 294 295 293 291 291 291 292 292 292 291 290 291 291 291 290 289 289 288 286 285 285 286 289 286 284 284 285 285 284 284 284 283 283 283 283 283 284 284 285 286 286 287 288 288 288 288 288 288 288 287
295 293 294 295 297 298 296 293 293 295 297 297 293 294 296 299 297 298 296 294 293 294 293 291 289 290 291 291 291 288 288 287 288 289 290 291 291 295 293 292 291 291 290 289 289 290 290 290 291 291 290 290 290 288 288 288 288 286 284 284 283 284 283 283 283 283 283 282 282 281 282 283 282 282 283 283 284 284 284 285 286 286 286 287 287
293 292 293 294 294 294 296 296 294 294 295 295 291 294 296 296 296 296 296 294 294 293 292 292 291 290 289 290 290 288 287 287 288 288 290 290 290 291 291 290 291 292 289 289 290 290 291 290 291 290 290 290 291 290 288 288 286 285 285 283 283 282 282 281 282 284 283 281 281 280 281 283 282 280 282 282 282 282 282 283 284 285 286 286 286
292 291 292 294 293 292 293 293 294 293 292 291 293 295 295 295 294 297 296 294 292 292 291 291 291 290 290 289 289 289 289 290 290 289 289 289 289 289 290 289 289 290 291 291 290 290 288 290 290 290 289 290 290 289 288 285 285 283 282 282 282 281 281 280 281 281 283 281 281 280 280 283 282 281 280 281 282 282 281 282 284 285 286 286 286
291 292 294 293 293 292 293 293 293 291 291 291 294 294 295 295 294 294 293 292 291 291 290 290 290 290 289 289 289 288 288 285 287 288 288 288 287 288 288 288 288 290 291 291 291 292 289 289 289 289 290 289 288 287 285 284 283 283 281 281 281 281 281 281 282 283 282 280 280 279 279 281 281 280 280 281 282 281 281 282 284 285 286 286 287
292 292 291 292 292 293 293 293 293 292 292 291 293 294 294 294 294 294 294 292 292 291 291 291 291 290 290 290 289 288 287 286 287 287 287 286 286 287 287 287 287 286 288 289 289 288 289 290 289 287 289 287 286 285 282 284 282 281 281 281 281 280 280 280 282 282 281 279 280 279 278 280 280 280 279 281 282 281 281 281 283 284 285 286 286
291 291 291 291 291 291 291 292 292 291 292 291 293 293 293 294 294 294 293 293 292 291 291 290 290 291 291 289 289 288 286 286 286 286 286 286 286 285 285 285 285 285 285 286 287 288 287 287 288 288 287 284 284 283 282 284 283 283 283 281 281 281 280 281 281 280 280 280 279 279 277 279 277 278 279 280 281 280 281 281 283 284 285 286 286
291 290 290 291 290 290 290 290 291 291 292 291 292 292 293 294 294 291 291 291 291 290 290 289 289 289 288 288 288 287 286 286 286 287 286 286 285 285 285 284 284 284 284 284 286 286 286 286 285 284 284 283 283 283 283 283 284 283 282 281 281 280 280 280 279 279 280 281 279 278 277 278 277 276 278 280 279 278 279 279 281 283 284 285 285
290 290 290 290 290 290 289 289 291 291 291 290 291 292 292 293 292 290 290 289 289 289 288 287 287 287 287 287 286 286 285 285 286 288 288 286 284 283 283 282 282 283 284 283 285 286 287 286 286 286 286 286 286 287 288 288 286 283 281 281 280 280 279 278 279 279 279 278 279 278 277 276 277 276 276 277 277 277 278 279 278 279 281 283 284
289 290 291 290 289 289 289 289 291 291 289 289 290 291 292 292 290 289 289 289 287 287 285 285 286 286 285 285 285 285 285 285 286 288 288 285 282 281 281 280 279 279 281 281 281 282 285 285 286 286 286 286 286 286 286 286 287 285 282 280 279 279 279 278 277 278 278 277 277 278 275 276 274 274 275 275 275 275 275 275 277 277 278 279 281
290 289 289 290 289 289 289 290 288 290 289 288 289 290 291 292 290 289 289 288 287 286 285 284 284 284 283 284 284 284 285 285 287 288 288 285 282 281 280 279 278 278 281 280 280 279 279 278 279 281 281 281 282 283 283 284 284 284 283 281 279 279 278 278 277 276 276 277 275 277 275 275 275 276 274 275 275 276 271 272 274 275 276 277 277
Wind_Speed
5 5 4 5 4 4 3 3 3 3 3 4 3 4 3 2 2 2 1 2 2 1 1 2 1 0 1 2 2 1 1 1 2 1 2 1 1 1 2 4 3 5 7 8 8 7 5 4 7 7 7 7 8 8 8 8 8 8 8 9 9 9 9 9 9 9 9 9 8 8 8 7 7 7 7 8 8 9 10 10 11 12 12 13 13
5 5 5 5 5 4 4 4 4 4 4 4 4 3 3 3 2 2 2 2 2 1 1 2 2 1 1 2 1 1 1 2 2 2 2 1 1 1 2 2 2 4 6 7 8 8 8 6 8 7 7 7 8 7 8 8 8 8 8 8 9 8 8 8 8 8 8 8 7 7 7 6 6 6 7 7 8 9 9 10 11 11 11 12 12
6 6 5 5 5 5 5 4 4 5 5 5 3 4 3 3 3 2 1 1 2 1 1 2 2 2 1 2 1 1 1 2 2 2 2 2 2 3 3 3 1 2 4 6 7 8 8 9 7 7 7 9 8 8 7 7 7 7 8 8 8 8 8 8 8 8 7 7 6 6 6 5 5 5 6 7 8 8 8 9 9 10 10 11 11
7 6 7 6 6 6 5 5 6 4 4 4 4 4 4 4 3 2 2 2 2 2 1 2 2 2 2 2 1 1 1 2 2 3 3 3 4 4 3 2 2 1 2 5 6 7 9 9 6 9 9 8 8 8 7 7 7 7 8 8 8 8 8 8 8 7 7 6 6 5 5 5 4 5 5 6 6 6 7 8 8 9 9 10 11
7 8 7 7 6 6 6 6 6 5 4 5 5 5 4 3 3 2 2 2 2 3 1 1 3 3 2 2 1 2 1 2 2 3 4 4 3 3 3 2 2 2 1 3 5 6 8 9 7 9 9 9 9 8 8 8 7 7 7 8 8 8 8 8 8 7 7 6 6 5 4 5 3 4 4 5 5 5 6 7 8 8 9 10 11
7 7 7 6 6 6 6 6 5 5 4 5 5 4 4 4 4 2 3 3 4 3 2 3 3 2 3 2 1 2 1 2 3 4 3 4 4 3 3 2 2 2 2 2 3 5 8 9 7 9 8 9 9 9 8 8 7 7 7 8 8 8 8 8 8 8 7 6 6 5 4 4 3 3 3 3 4 5 6 7 7 8 9 10 10
8 8 7 6 6 6 6 5 3 4 5 5 5 4 4 5 4 5 3 3 4 3 3 4 4 4 3 1 2 1 1 3 3 3 4 4 3 3 3 3 3 3 2 2 0 3 6 6 9 10 11 10 10 10 9 8 8 8 8 9 8 8 8 9 8 8 8 7 6 5 4 3 2 2 2 3 4 5 5 7 7 8 9 10 10
9 8 7 7 7 7 5 3 4 4 4 5 4 5 5 5 5 5 5 5 4 5 3 4 3 5 3 2 2 2 2 3 4 4 4 3 4 5 4 4 4 3 3 2 2 1 4 5 5 4 3 6 11 10 10 9 10 10 10 10 9 8 8 9 9 9 8 7 6 6 5 3 2 2 2 3 4 4 5 6 6 7 8 9 10
9 9 8 8 7 7 4 5 4 5 4 5 5 5 6 5 6 6 5 5 4 5 3 3 4 4 3 3 3 3 3 4 4 4 3 5 5 5 4 3 1 2 2 2 2 2 3 3 2 2 3 2 2 10 11 11 12 12 12 11 10 9 9 8 9 9 9 8 7 6 5 4 2 1 1 2 3 3 4 5 5 6 7 8 9
10 9 8 8 5 5 5 5 5 5 4 6 6 5 6 6 7 5 6 6 5 5 5 3 2 4 4 4 4 3 4 4 4 3 4 5 5 6 5 4 4 3 1 1 1 2 3 4 4 3 3 3 1 7 12 13 14 14 14 13 11 10 10 9 9 9 9 8 7 6 5 4 2 1 0 1 2 3 3 4 5 5 6 7 8
8 9 8 8 8 7 6 6 5 6 6 7 7 6 6 6 7 7 3 6 7 5 5 3 3 3 5 5 4 5 4 3 3 4 5 6 6 5 3 5 4 3 2 2 2 3 3 2 3 3 3 6 4 2 6 14 15 14 15 14 13 12 11 11 10 10 10 9 8 7 6 4 4 2 1 0 1 2 2 3 4 5 6 6 7
7 8 10 8 9 8 7 6 6 7 7 7 8 7 8 8 8 7 7 5 5 6 4 3 4 5 7 6 5 6 6 5 6 5 5 5 5 4 5 3 3 3 3 4 4 5 5 5 4 4 4 6 7 7 5 2 4 11 15 15 15 14 13 12 12 11 10 10 9 7 6 6 4 3 2 2 1 1 2 3 3 4 5 6 7
7 8 10 8 7 6 7 7 7 8 8 9 7 6 6 5 4 5 7 7 7 5 4 3 4 7 5 6 6 5 6 6 8 6 5 4 4 5 4 4 5 5 6 5 5 4 4 4 5 4 5 4 6 8 7 6 5 7 9 14 15 15 14 13 13 12 11 10 9 8 7 6 5 4 3 3 2 2 3 3 4 4 5 6 7
9 8 7 8 8 9 9 9 9 8 8 8 8 7 6 7 6 5 5 7 7 3 5 5 4 6 7 6 4 4 5 5 7 8 7 6 6 6 5 6 6 7 6 5 5 5 5 5 4 5 5 5 5 5 5 5 5 7 10 13 15 16 16 15 14 13 12 11 10 9 8 7 6 5 4 3 3 3 3 4 4 5 5 5 6
10 10 9 10 9 7 8 7 9 8 7 8 8 8 8 9 8 8 6 4 6 4 6 9 6 3 3 3 6 4 1 2 4 8 8 6 5 7 6 6 8 7 6 5 5 6 5 5 6 5 5 6 5 5 5 5 6 7 8 12 14 16 17 16 16 14 13 12 11 11 10 8 7 6 5 5 5 4 4 5 4 5 6 6 6
11 11 9 10 11 10 7 8 9 8 9 9 9 10 9 9 8 9 9 8 6 6 7 7 6 4 6 6 3 1 7 4 6 2 4 6 7 9 7 7 6 6 5 7 7 6 6 6 7 7 6 6 5 4 4 5 8 7 10 9 8 10 14 17 17 16 14 13 13 12 11 9 8 8 7 6 6 5 5 6 6 6 6 7 7
8 9 11 11 11 10 10 8 9 9 9 10 10 11 10 10 10 9 10 10 11 9 6 8 9 9 8 2 4 4 6 3 2 4 2 3 8 8 7 7 7 7 6 7 5 6 6 7 7 6 7 6 5 5 5 6 6 7 9 10 10 11 13 16 18 17 16 14 13 12 11 11 10 9 8 8 7 6 6 7 7 7 7 7 7
10 11 11 9 11 11 10 10 10 9 10 11 10 8 10 11 11 11 11 12 11 8 7 6 10 11 12 10 7 7 4 2 1 5 1 4 2 5 7 7 6 6 6 6 7 7 6 7 6 7 6 5 5 5 6 6 6 6 6 7 12 13 13 13 16 17 17 15 14 13 12 12 11 10 10 9 8 7 7 8 8 8 8 8 8
10 10 10 11 10 9 11 11 10 10 9 9 10 11 10 11 9 10 11 9 9 11 12 9 6 8 9 10 11 9 8 6 6 1 5 1 3 5 6 6 7 7 7 8 8 7 7 7 7 7 6 5 5 5 5 5 7 7 10 12 16 16 15 14 13 15 16 16 16 14 13 13 13 12 11 10 9 9 9 9 9 9 9 9 9
11 11 11 10 11 11 10 11 11 11 9 10 12 11 9 9 10 11 10 9 11 11 12 11 10 8 8 11 11 10 11 10 9 10 9 8 5 1 4 6 5 7 8 9 9 10 9 7 7 7 6 6 5 5 6 6 6 7 8 14 16 16 17 16 14 13 15 16 16 16 15 14 13 12 12 11 10 10 10 10 10 10 10 10 9
11 11 11 12 10 11 12 11 10 11 10 11 11 10 11 11 10 10 11 10 11 11 11 10 10 11 6 9 9 10 9 9 8 6 7 7 10 8 7 1 3 7 8 8 8 8 9 8 6 6 6 6 6 6 6 6 6 7 8 14 17 17 18 18 16 15 14 15 15 15 15 15 14 13 12 12 11 11 11 11 11 11 10 10 10
10 11 11 11 11 11 11 12 12 11 9 10 10 11 11 11 11 12 11 12 10 10 12 10 9 9 8 6 7 5 7 6 6 7 8 9 10 7 5 7 8 6 6 8 10 9 8 5 6 7 7 7 7 7 7 7 7 6 9 13 15 17 18 18 18 17 16 14 13 14 14 15 14 14 13 13 12 12 12 12 12 12 11 11 11
8 10 11 11 11 11 11 12 11 9 9 10 11 11 11 12 11 10 11 12 10 10 10 10 9 8 10 9 10 8 8 7 8 7 9 7 6 7 7 8 11 11 8 8 8 8 7 6 8 8 8 9 8 8 8 8 10 11 13 12 16 16 17 18 18 19 18 17 16 15 14 14 15 14 14 13 13 13 13 13 13 12 12 11 11
8 9 10 11 10 10 11 10 10 11 11 10 9 10 10 9 9 9 9 10 10 10 9 10 11 9 8 7 8 8 9 8 6 7 8 8 9 10 8 5 6 7 6 1 2 6 8 9 9 9 10 9 9 8 8 8 10 16 12 15 16 18 18 19 19 19 18 17 16 15 15 15 15 14 14 14 14 14 14 14 13 13 13 12 12
10 10 11 12 11 10 10 10 10 10 10 10 10 9 8 8 8 9 9 10 9 10 9 10 11 10 10 9 9 9 10 8 7 9 8 8 8 9 8 6 8 7 6 4 4 2 6 7 8 10 9 10 8 8 8 7 7 12 15 11 16 16 18 19 20 18 17 17 16 16 16 16 16 15 15 15 15 15 15 14 14 13 13 13 11
11 11 10 11 10 11 10 10 10 10 10 10 10 9 9 8 9 9 10 10 10 12 11 12 11 12 11 9 10 10 9 8 10 9 8 7 7 9 9 6 6 8 2 1 1 2 4 8 9 7 7 8 7 6 5 6 6 12 15 11 13 17 17 18 18 17 18 18 19 18 17 17 17 17 16 17 16 16 15 15 14 14 14 12 11
10 10 10 11 11 11 11 11 10 10 9 10 9 9 9 9 9 10 9 9 10 10 10 11 11 11 10 10 10 9 9 9 9 9 8 9 9 8 7 8 6 6 7 5 4 8 10 2 5 7 9 9 6 6 7 7 10 13 13 11 9 15 16 17 16 16 16 18 19 19 18 18 17 17 17 17 17 16 15 14 14 14 13 13 11
9 9 9 10 11 11 11 11 11 10 10 10 10 9 9 9 9 9 11 8 10 12 11 10 12 13 12 11 9 9 10 10 9 9 8 8 8 7 7 8 9 7 3 4 3 7 7 7 2 6 6 6 7 7 9 10 8 14 13 9 8 7 13 14 16 18 18 18 19 19 20 19 18 18 18 17 17 16 15 14 14 14 13 11 11
8 9 9 10 9 10 11 11 10 10 9 10 10 9 9 9 8 8 9 8 9 10 9 9 10 11 10 11 9 9 9 9 9 8 8 7 7 6 6 7 6 8 5 2 5 6 3 7 5 2 5 6 7 6 7 8 9 10 8 8 9 9 10 15 18 18 17 18 19 20 20 20 19 19 18 18 17 16 16 15 14 13 13 13 13
9 8 9 9 9 10 10 9 9 9 10 9 9 9 9 8 9 9 8 8 9 8 8 9 9 8 9 8 8 8 8 8 9 9 8 7 7 7 7 7 8 10 8 8 6 7 6 2 5 4 4 7 6 6 6 6 8 10 7 7 9 9 10 15 18 20 20 20 19 19 20 21 20 19 18 18 18 17 16 15 14 14 14 14 14
8 8 9 9 9 10 9 9 9 9 9 9 9 8 8 8 8 8 8 8 7 7 6 7 7 7 8 8 8 8 8 8 8 7 7 7 7 7 7 7 7 9 9 7 7 3 4 6 6 5 3 3 4 4 5 3 5 9 6 7 8 8 13 13 17 18 17 18 19 19 20 20 20 19 19 18 18 18 17 16 15 14 14 14 14
9 9 9 10 10 10 9 9 8 8 8 8 8 8 8 8 8 7 7 7 7 8 7 7 6 7 7 7 7 7 6 5 5 4 4 5 5 6 7 7 8 8 8 7 9 9 4 4 2 0 1 0 1 3 4 2 2 8 5 5 6 9 8 6 12 14 15 18 19 17 18 18 19 19 19 19 19 18 17 16 15 15 15 14 14
8 9 10 10 10 10 10 9 9 8 8 8 7 7 7 7 7 7 6 7 7 6 6 6 5 6 7 7 6 5 4 5 4 3 4 4 5 5 5 4 5 5 5 6 7 8 3 1 1 2 2 4 3 3 4 4 4 5 6 5 6 6 6 6 7 14 17 16 15 14 16 17 17 17 18 18 18 18 17 16 16 15 14 14 13
8 10 10 9 9 9 9 9 8 8 8 8 7 7 7 7 7 6 6 6 7 7 5 6 5 5 5 6 5 5 5 6 4 4 5 5 4 4 5 5 6 6 4 4 5 4 6 2 2 0 1 1 3 3 6 6 6 4 5 5 4 5 4 4 5 6 13 13 13 15 16 16 15 15 16 16 16 16 16 15 15 14 14 13 12
8 9 9 8 8 8 9 8 8 8 8 8 7 7 8 8 7 6 6 6 6 6 6 6 5 5 5 6 6 5 4 4 5 5 4 4 3 4 6 4 5 5 2 4 3 4 5 6 2 2 1 2 4 3 3 3 2 3 4 4 3 2 3 5 4 4 8 13 15 16 15 15 16 16 16 15 15 15 15 15 15 15 13 13 13
9 7 6 7 8 8 8 8 8 8 8 7 7 7 8 8 6 7 6 6 6 6 6 5 6 5 6 5 5 5 4 4 4 4 4 4 4 4 4 4 5 5 2 3 4 4 4 4 2 3 2 3 2 0 0 0 1 1 2 1 3 4 4 4 4 5 6 11 14 15 15 16 16 15 16 16 16 16 16 16 15 15 15 14 13
8 6 6 6 7 8 8 8 8 8 8 7 8 7 7 6 7 7 6 6 6 6 6 5 5 5 5 5 4 4 3 4 4 4 4 4 5 4 5 4 3 2 2 2 2 3 4 6 4 2 1 1 1 0 1 2 1 1 1 3 4 4 5 4 4 4 4 9 12 13 14 15 16 16 17 17 17 16 16 16 15 16 15 14 15
7 7 8 7 8 8 7 8 8 8 8 7 8 8 7 6 5 5 5 5 5 5 4 4 5 4 4 4 4 3 3 4 4 4 3 5 4 5 4 3 3 3 3 3 3 4 5 6 5 5 2 3 1 1 1 2 2 2 3 4 3 4 4 5 5 4 3 3 4 6 10 13 16 17 17 17 17 17 16 17 17 16 17 16 16
7 8 7 8 7 8 8 7 8 7 7 7 7 6 6 5 5 5 5 5 4 3 3 4 4 4 4 3 3 3 4 4 5 5 5 5 5 4 5 4 4 5 4 4 5 6 6 5 4 3 3 1 1 2 1 2 3 4 4 3 4 4 5 6 6 4 3 4 6 10 10 7 6 7 12 16 17 18 18 17 17 18 18 17 15
8 8 8 8 7 7 7 7 7 6 7 7 6 5 5 5 5 4 4 5 4 4 4 3 3 3 3 3 3 4 5 5 5 5 5 6 4 4 3 4 4 5 4 4 4 4 5 4 5 3 3 2 1 1 1 2 2 3 5 4 5 4 3 4 6 5 3 5 6 5 7 8 9 12 15 16 18 19 18 16 17 17 16 16 13
6 7 7 7 7 6 4 5 5 5 6 6 6 6 6 4 4 5 5 5 5 5 4 3 2 2 3 3 3 3 5 5 7 7 6 5 4 4 3 4 5 5 5 5 5 6 4 4 4 2 2 3 3 3 3 3 5 5 1 4 3 3 1 2 4 5 4 4 4 4 7 7 6 8 8 8 10 12 14 14 12 13 16 15 14
6 5 5 5 7 7 6 4 4 5 5 4 6 9 7 7 6 5 5 5 6 5 5 4 3 2 3 4 4 5 6 7 7 7 7 7 6 5 5 5 6 6 4 4 4 4 3 3 4 3 3 4 5 5 5 5 3 1 2 2 3 1 1 3 4 4 5 6 5 6 7 4 5 6 6 8 4 4 6 5 7 5 10 15 16
6 6 6 6 6 6 6 7 6 5 4 5 8 8 9 9 7 6 6 5 4 5 6 6 6 5 4 4 4 5 5 4 5 6 5 5 6 6 5 7 6 7 5 5 4 4 4 5 4 3 5 7 7 4 4 3 2 3 2 2 2 1 3 2 5 1 2 5 4 3 6 2 3 6 6 7 4 3 5 8 12 15 16 16 17
6 5 5 6 5 5 5 5 6 6 5 6 9 10 10 10 9 7 6 6 6 6 6 7 6 6 5 5 4 4 4 5 4 3 2 2 2 2 3 3 5 5 6 5 4 4 4 5 5 5 3 6 4 2 2 1 2 1 2 2 2 3 3 3 2 4 1 2 3 2 4 1 2 4 6 7 4 4 6 9 14 17 18 18 17
5 7 7 6 6 5 6 7 6 6 5 7 10 11 11 12 11 8 5 6 7 7 6 6 6 6 6 6 5 4 3 4 4 3 4 3 2 3 3 3 3 5 5 4 4 4 2 4 4 4 5 2 3 3 2 2 1 1 1 2 2 2 3 3 5 3 1 2 0 2 4 2 2 4 5 5 4 4 5 10 14 15 16 16 16
8 7 6 7 6 7 7 7 6 6 6 9 12 12 12 12 12 10 7 7 7 7 7 8 7 7 7 7 6 6 4 4 3 4 4 5 4 3 2 2 2 2 3 4 3 3 3 3 3 3 1 2 2 1 1 2 2 1 1 2 2 2 3 4 3 3 1 2 2 1 3 2 2 1 4 3 1 4 5 7 12 13 14 15 15
9 9 9 8 8 8 7 7 6 7 8 12 13 13 13 13 13 11 7 7 7 6 6 7 7 7 7 6 6 6 5 4 4 6 5 5 4 3 3 2 1 0 1 1 1 1 1 1 3 3 2 1 2 2 1 2 3 3 1 1 1 1 1 1 1 1 1 3 2 1 4 1 1 1 3 3 1 2 3 6 11 13 13 14 14
6 6 6 8 9 9 8 8 8 9 8 13 14 14 14 13 13 7 7 7 7 6 6 6 6 5 6 6 6 6 6 6 6 8 5 4 3 4 4 3 1 1 1 2 3 2 1 1 1 2 2 2 3 3 2 2 1 1 1 1 1 1 1 2 3 0 2 0 2 2 3 1 1 1 2 1 1 3 3 3 7 11 11 12 13
9 9 10 9 7 9 9 9 10 8 8 11 13 13 13 14 10 5 6 5 6 7 6 6 5 5 6 6 7 7 6 6 6 8 8 6 4 5 5 4 2 1 0 1 2 1 1 2 2 2 3 3 3 4 4 4 2 2 1 0 1 0 1 3 3 1 2 1 1 3 1 4 1 1 3 1 2 4 4 2 1 4 8 10 12
10 10 8 7 7 8 10 10 10 8 7 10 14 13 14 15 12 8 7 6 6 5 5 5 4 4 5 7 6 7 6 5 7 8 9 7 5 5 5 6 5 3 0 0 0 2 3 4 5 4 6 7 7 7 7 8 8 4 0 1 1 0 1 1 3 2 3 2 1 2 1 2 1 1 2 1 2 2 2 1 2 2 3 5 7
6 5 7 7 7 7 8 9 10 11 8 9 14 14 15 16 12 7 7 7 8 6 5 5 3 3 3 4 7 6 5 6 8 7 9 6 4 5 5 6 5 5 3 2 2 1 0 1 2 3 4 5 4 4 5 9 10 5 1 1 1 0 2 2 3 3 5 1 1 2 1 1 2 1 0 4 2 0 1 1 1 1 1 1 1
Wind_Direction
202 208 206 213 216 214 212 221 221 232 231 237 238 249 253 264 275 271 291 297 301 296 312 301 292 299 289 296 304 293 292 267 248 207 220 220 213 210 307 325 353 339 331 322 314 282 220 213 157 153 146 140 144 152 148 142 138 133 129 126 120 115 112 108 105 103 99 96 95 89 82 78 72 66 62 56 51 41 35 34 32 32 30 28 28
203 206 206 217 218 221 223 224 230 230 230 243 238 242 246 247 244 249 251 274 270 267 296 299 296 228 242 277 267 286 296 279 251 209 205 192 277 228 233 281 347 343 332 321 309 307 318 258 166 178 152 159 158 158 154 152 146 141 137 134 130 125 121 118 113 111 108 104 100 95 90 85 71 64 58 52 46 40 33 29 29 29 30 28 27
206 208 211 216 218 221 225 222 231 231 230 242 240 239 237 238 240 242 240 264 274 244 266 277 281 281 238 260 273 252 256 252 244 206 198 197 201 229 215 212 123 20 329 316 312 304 298 296 210 162 171 169 171 169 162 161 156 150 148 145 139 135 132 129 123 119 118 113 107 105 101 88 75 62 56 53 47 38 31 28 28 27 29 29 26
206 206 211 213 216 216 221 218 228 226 222 229 231 231 233 239 243 249 254 255 271 254 240 266 269 268 266 254 243 258 263 262 243 216 215 206 190 212 214 209 182 136 325 317 317 303 299 287 257 180 173 188 180 171 175 172 169 165 161 155 150 146 145 139 133 129 126 126 121 116 108 96 81 63 58 57 52 40 32 27 27 25 24 26 24
204 208 207 214 217 221 225 226 230 225 218 220 224 231 234 241 243 233 234 242 250 257 211 221 251 253 245 248 248 251 247 253 238 224 219 217 228 196 200 204 235 170 193 315 309 319 306 285 240 187 180 194 190 184 185 185 183 179 173 167 163 159 155 147 143 144 140 141 140 128 117 109 91 71 65 61 54 40 31 27 22 24 17 22 22
205 208 208 213 217 221 228 233 229 224 215 209 218 218 228 234 244 220 241 240 251 259 264 255 238 250 247 240 237 255 270 255 238 233 224 220 217 208 194 191 212 248 186 245 310 342 330 290 215 190 188 198 201 201 193 197 197 194 190 187 177 168 162 159 157 156 155 150 149 143 131 122 105 88 74 54 54 37 29 25 19 19 13 16 19
210 210 213 215 221 228 231 229 208 210 215 215 220 221 227 240 233 241 236 241 247 249 242 252 259 256 251 245 257 253 242 252 244 232 226 220 208 220 197 192 204 219 227 181 235 359 359 334 186 193 198 202 208 210 206 208 206 206 205 201 191 182 173 171 169 165 164 163 157 156 150 134 119 100 73 51 43 30 25 24 19 12 9 11 14
212 210 215 213 220 226 225 213 203 198 202 216 212 227 228 236 234 225 244 243 236 253 212 241 240 259 260 253 255 239 252 247 237 230 223 214 212 207 209 201 199 197 202 195 177 91 49 12 48 84 77 217 210 216 216 214 217 218 215 210 205 195 191 180 176 174 173 171 172 167 162 150 136 84 70 47 35 26 22 20 19 7 7 5 11
213 210 214 216 217 221 212 209 195 199 202 214 216 220 225 230 237 224 222 255 234 252 243 226 248 256 271 262 254 244 240 241 233 226 199 219 215 215 221 227 223 214 222 229 187 162 119 107 83 76 122 72 244 214 222 221 217 220 220 218 214 207 203 193 188 184 181 180 181 177 169 165 144 90 64 49 31 22 20 11 15 3 2 1 3
212 210 211 218 207 207 210 201 193 202 204 216 224 221 225 227 242 225 222 235 249 246 253 237 238 262 264 258 258 239 244 238 230 217 210 216 215 214 210 198 195 199 206 232 253 201 191 175 160 144 139 167 173 235 224 225 224 221 222 220 218 215 215 207 201 195 191 187 185 184 174 166 173 166 67 45 24 13 10 4 4 356 357 358 353
203 206 208 215 218 218 215 202 195 210 216 224 228 223 221 224 234 246 216 229 241 245 250 251 249 261 265 262 259 250 248 241 234 213 216 215 212 216 196 205 190 176 190 213 206 224 203 200 197 190 194 190 180 192 241 228 224 226 226 220 218 215 216 217 209 205 200 194 191 188 180 180 184 190 205 324 2 351 354 353 347 346 349 349 347
199 197 209 210 216 218 216 203 198 206 218 225 229 223 222 223 231 236 243 235 235 246 243 241 257 266 270 266 245 252 240 239 233 225 221 211 215 201 208 202 203 180 192 200 215 212 198 190 195 200 196 200 198 194 203 247 256 232 229 224 221 219 215 214 216 211 206 203 197 192 190 189 183 200 208 236 278 304 315 329 326 332 338 338 337
200 196 209 210 214 213 215 218 205 212 219 227 222 217 208 209 219 219 234 243 248 227 228 208 254 280 257 252 266 223 243 240 237 234 223 216 209 208 202 193 198 197 204 207 211 219 243 206 194 196 204 199 203 202 199 211 235 241 244 235 228 222 219 214 217 215 210 205 200 199 195 194 193 201 215 224 245 268 284 299 310 320 324 328 331
208 198 202 205 213 218 218 223 213 215 221 231 233 228 213 220 214 232 218 232 246 178 201 156 227 237 274 290 265 256 215 229 239 242 237 228 216 214 195 203 202 202 202 205 210 204 212 227 214 207 207 207 207 197 200 207 222 235 239 240 233 229 225 221 219 220 211 209 205 204 200 201 200 206 213 225 238 257 272 283 299 308 310 312 318
208 207 208 211 213 210 219 214 220 214 217 226 226 227 222 222 211 221 233 222 239 219 188 191 245 185 240 304 280 281 254 256 244 245 239 231 218 223 215 213 210 204 202 200 207 209 208 209 217 217 212 213 210 206 205 211 210 222 239 249 240 235 230 228 224 223 218 209 210 207 206 205 207 207 214 224 234 244 257 268 279 288 293 299 303
209 207 210 212 213 217 216 218 221 216 216 222 221 226 221 220 213 217 226 243 220 234 200 201 209 152 263 222 254 255 298 250 244 255 219 220 219 226 222 221 216 215 212 214 211 208 211 204 212 214 215 215 210 207 207 210 210 215 230 251 266 261 248 231 229 225 223 219 212 211 208 208 209 213 217 225 230 237 246 258 267 271 280 287 294
202 204 209 214 213 218 218 217 220 216 216 219 223 224 219 218 211 213 209 221 243 237 210 204 214 208 225 246 270 247 233 273 54 260 155 191 222 217 220 223 213 214 214 230 231 222 214 216 222 219 220 218 212 205 207 209 210 215 221 230 242 248 257 246 229 229 226 222 219 213 212 211 214 215 218 222 229 237 244 253 258 263 271 280 287
212 211 213 210 217 216 218 220 219 218 214 220 225 227 224 219 212 214 216 216 230 243 234 210 223 217 227 235 237 268 280 178 87 279 85 231 254 225 228 227 225 223 224 231 231 234 225 228 212 221 215 212 209 209 206 205 208 212 214 217 224 234 241 253 242 230 231 226 227 217 215 215 216 216 219 221 226 233 239 247 255 260 266 272 277
211 211 212 213 216 216 218 220 220 221 217 220 223 223 223 219 215 214 219 217 214 235 238 234 221 237 232 240 247 252 257 260 249 296 280 192 232 231 239 230 228 227 226 225 228 233 235 231 224 223 218 210 209 213 214 213 210 216 215 218 222 225 231 238 247 242 233 232 232 228 219 220 218 220 223 224 226 230 237 244 251 259 264 268 275
210 210 212 211 211 216 216 219 219 221 216 219 225 225 227 228 219 219 219 214 211 222 235 232 222 234 206 231 238 247 252 250 250 250 269 274 244 218 244 237 230 235 232 229 222 226 235 225 230 224 221 212 208 212 213 215 214 210 216 220 223 225 227 229 232 242 240 233 231 229 227 223 221 222 226 226 228 232 237 243 249 255 261 267 274
210 210 211 213 208 214 216 217 218 222 214 223 226 227 228 229 220 218 217 217 218 222 230 233 223 235 197 226 229 235 240 238 245 239 247 262 264 248 243 272 269 250 236 228 231 227 229 230 219 232 231 223 211 212 213 213 214 215 216 215 220 223 226 227 226 227 232 234 233 229 225 226 226 225 227 227 229 233 237 243 247 249 256 263 267
210 212 213 213 213 213 216 218 220 223 214 221 224 225 228 228 228 223 217 217 217 219 225 230 229 231 223 219 213 223 232 239 224 226 240 235 255 245 229 241 256 241 206 225 222 224 226 222 225 225 229 227 219 214 212 214 213 211 217 214 219 223 226 227 226 222 221 223 226 226 224 226 227 227 228 228 228 233 236 240 244 247 252 258 263
205 213 213 213 216 213 216 219 221 219 219 219 222 224 227 230 229 222 221 217 219 219 221 228 232 230 230 227 232 220 225 226 229 222 225 235 243 256 254 246 250 264 242 203 217 218 218 212 218 220 221 223 218 214 211 212 218 221 220 213 220 221 225 227 226 225 220 217 217 219 221 226 229 228 229 228 229 234 238 239 242 247 251 255 260
207 211 214 214 215 217 217 220 221 221 222 219 220 222 227 223 225 221 220 220 223 222 220 221 224 232 235 233 234 232 232 234 232 237 231 235 238 256 259 242 256 245 264 220 199 219 210 212 212 214 217 220 219 210 213 213 216 215 216 220 219 219 221 224 225 225 221 221 222 222 224 228 231 234 233 232 234 237 239 242 244 247 251 254 259
211 210 213 210 213 215 212 213 215 216 218 215 218 211 213 216 216 219 219 218 216 220 222 221 220 220 226 228 228 225 230 228 232 235 235 246 245 254 257 234 249 261 254 234 237 217 232 239 222 217 216 217 218 207 208 207 212 210 215 223 219 221 221 223 225 224 222 222 222 223 225 226 230 231 235 237 239 240 242 244 246 250 252 256 261
204 209 206 206 210 212 210 212 214 217 219 221 221 218 216 218 224 223 221 220 218 219 222 224 225 223 223 227 228 228 229 229 235 235 231 227 236 240 254 239 215 249 242 203 214 227 245 226 224 222 217 223 218 205 200 212 217 220 216 224 223 222 220 221 224 224 223 226 226 223 223 225 226 228 231 235 237 239 243 246 249 252 256 259 262
206 210 199 203 209 211 212 213 212 215 214 216 219 221 218 223 226 225 226 221 222 222 222 222 226 229 228 229 232 225 223 226 223 228 224 228 234 238 234 256 246 222 240 213 219 202 232 230 201 214 218 228 216 205 202 191 218 217 215 223 229 224 224 222 221 224 223 223 224 225 226 225 227 230 232 235 238 240 243 245 251 257 260 263 268
210 199 199 200 206 208 212 215 214 215 215 215 215 216 219 222 223 224 228 217 225 224 223 220 226 226 229 228 224 228 227 229 226 226 226 230 234 239 235 243 264 278 221 267 269 262 188 226 237 213 211 204 204 209 207 212 213 213 210 219 217 216 224 221 219 219 221 225 225 225 226 226 227 230 234 235 236 240 243 246 253 261 268 271 275
206 196 200 202 205 208 212 215 216 215 215 216 216 217 217 221 224 226 226 220 227 225 218 221 224 225 232 228 226 230 233 229 228 222 226 225 227 230 220 235 237 260 268 229 228 257 226 205 219 224 191 205 211 199 200 208 214 203 201 208 215 218 208 213 218 221 225 227 229 227 224 227 226 230 233 237 237 238 240 243 247 254 258 263 266
199 197 197 200 207 208 213 213 213 214 217 216 215 217 218 223 224 226 223 221 224 222 221 221 223 222 226 226 225 235 234 229 226 221 222 221 221 221 222 222 221 236 243 260 256 215 252 224 225 220 178 211 203 199 199 210 201 196 207 203 212 209 198 209 214 215 217 221 225 227 226 226 226 229 233 237 240 240 242 243 245 249 255 258 264
193 191 197 204 206 209 212 214 213 214 214 216 213 216 217 225 225 229 226 225 230 231 223 216 221 218 223 227 228 236 231 227 225 214 213 213 220 220 226 222 228 227 240 240 261 242 217 221 221 238 226 196 202 200 173 207 190 198 204 204 214 203 204 216 216 217 217 223 227 227 226 226 227 229 232 237 240 241 243 245 246 252 255 260 265
198 193 197 204 205 208 208 212 213 212 213 214 212 215 215 220 220 225 223 219 227 228 224 217 220 222 227 235 236 236 235 232 225 211 210 216 218 224 224 224 229 230 230 236 243 258 212 220 219 221 0 71 166 219 234 95 185 198 210 204 209 207 210 219 225 225 224 227 229 229 228 229 231 233 235 238 240 243 246 248 250 253 257 260 262
187 194 202 206 206 206 207 209 211 211 210 213 211 214 216 221 221 220 216 217 224 228 221 229 224 225 227 232 235 228 219 221 216 215 222 229 232 240 242 235 242 239 220 229 244 260 274 53 83 173 193 152 197 191 203 169 197 205 208 203 195 205 208 209 217 224 225 227 229 229 230 230 233 235 237 240 242 245 248 251 254 255 257 258 258
184 200 205 205 202 203 208 209 209 212 213 214 212 213 217 219 222 217 221 217 222 227 215 227 223 220 228 227 227 219 206 210 206 216 225 228 223 238 244 231 241 243 221 217 237 245 260 289 194 314 40 275 208 168 197 196 209 179 206 205 208 205 211 219 227 231 230 227 229 231 230 230 233 236 239 242 242 245 248 249 250 250 250 251 250
197 203 203 198 199 202 207 207 207 210 211 212 211 210 214 214 217 222 217 217 221 227 226 226 227 224 224 224 229 220 212 210 214 218 216 229 220 221 241 223 230 243 204 196 196 228 246 262 261 176 184 201 218 201 210 223 213 170 208 215 208 206 225 228 231 230 232 230 228 229 230 233 236 237 238 239 239 243 246 247 248 250 248 246 249
201 205 198 197 199 203 205 205 206 208 209 209 210 209 210 203 212 221 221 219 220 221 222 224 227 219 218 216 227 219 207 206 219 215 220 221 215 223 239 238 214 230 191 161 197 216 219 249 270 203 193 204 228 46 291 17 90 182 227 216 195 218 212 225 233 228 232 236 233 232 233 236 238 238 239 240 239 241 242 243 245 245 246 248 247
201 188 200 199 201 202 203 202 203 205 206 204 207 209 213 212 210 215 217 215 215 215 216 219 214 205 200 200 215 210 200 208 226 217 213 208 214 201 221 232 219 213 160 168 189 179 211 232 259 267 292 312 16 46 128 169 130 197 188 219 216 218 214 222 221 219 231 238 245 241 238 240 241 240 242 242 241 242 243 242 242 242 243 243 243
192 194 192 197 198 202 203 204 202 203 202 201 202 204 204 202 208 209 208 204 205 198 194 188 179 183 187 199 209 197 191 203 229 233 221 221 197 198 207 207 178 164 172 189 177 194 208 233 226 262 233 227 196 196 187 190 209 227 216 216 228 218 215 230 221 204 195 206 225 243 245 243 240 242 245 244 242 243 242 240 240 240 238 237 238
189 193 197 194 202 199 202 199 202 196 197 195 198 201 193 190 196 198 194 181 171 177 184 184 179 181 183 186 192 183 193 205 221 227 221 213 197 207 202 189 180 166 187 192 188 199 208 216 228 227 255 246 233 246 141 214 222 227 248 240 240 206 208 220 244 204 176 222 239 242 247 248 248 248 248 246 243 243 241 241 241 239 238 240 242
192 189 189 191 195 197 195 192 193 190 189 186 191 200 193 177 167 175 174 170 161 161 162 178 189 183 175 174 187 195 197 205 206 225 213 213 189 203 199 170 168 177 193 188 188 200 207 213 229 217 203 194 136 128 180 193 222 232 214 220 250 240 203 216 231 231 185 205 229 234 245 251 247 248 249 246 245 244 243 245 246 246 246 247 245
187 185 182 179 169 182 179 182 171 174 181 187 176 175 163 156 162 170 176 171 168 167 171 176 187 179 162 174 183 198 205 207 208 206 214 210 177 195 196 168 178 190 190 186 194 189 211 207 245 190 210 223 221 198 205 214 218 254 160 187 245 258 273 255 238 218 215 212 220 231 239 220 227 232 236 241 241 243 249 252 255 251 248 245 243
172 169 168 172 173 174 174 175 170 171 181 170 176 178 175 169 172 172 170 176 171 171 170 162 170 185 175 176 195 196 197 201 207 210 218 215 215 203 182 183 182 182 185 187 196 202 206 225 238 230 237 247 232 200 223 228 228 208 194 199 240 257 248 258 267 222 192 201 218 228 239 212 215 250 245 249 245 209 254 248 243 231 230 238 245
163 162 161 168 182 181 179 177 181 188 181 172 172 174 167 161 158 163 171 181 175 171 169 170 177 180 187 185 177 199 197 193 197 203 204 210 219 225 196 191 187 179 179 194 206 192 203 225 232 224 235 251 260 228 230 243 214 212 236 221 240 249 255 277 289 333 158 190 211 237 262 198 181 243 252 253 248 215 226 237 236 241 239 239 244
173 160 174 181 179 182 177 177 184 184 185 180 173 169 168 168 171 166 166 167 172 176 178 178 176 171 175 179 189 180 199 189 170 169 179 180 184 169 166 176 195 209 208 196 190 200 202 218 229 232 230 250 268 240 245 223 239 224 222 223 219 216 236 241 250 269 57 160 199 234 266 253 191 240 260 258 246 226 227 235 241 242 245 245 246
165 187 196 182 194 188 185 186 191 181 186 184 178 177 174 171 169 155 165 167 170 179 177 174 174 176 170 172 183 195 187 173 158 154 147 155 162 168 165 178 202 223 235 239 230 213 181 219 234 250 232 259 265 259 207 206 162 212 164 221 224 223 235 245 245 275 38 139 241 248 266 259 184 235 248 257 244 240 238 240 245 248 249 249 250
192 196 196 203 201 203 200 197 195 193 197 193 186 183 183 176 170 165 170 174 181 176 175 180 179 176 174 173 183 179 176 167 156 163 175 169 168 154 146 153 178 227 243 244 263 238 217 235 232 245 293 166 254 266 246 157 162 206 184 243 210 225 227 237 302 311 11 170 225 314 276 238 204 235 256 275 237 250 246 244 250 254 252 250 248
191 195 194 197 202 201 201 195 194 200 206 192 188 185 184 181 178 173 173 178 175 179 181 178 175 174 174 174 171 157 158 162 169 179 177 176 156 140 126 128 160 20 0 348 290 294 275 259 247 263 309 263 272 274 213 207 224 238 221 277 238 243 255 305 278 182 260 194 212 208 278 63 68 226 257 283 300 266 250 252 252 252 252 251 250
195 186 201 193 191 191 188 186 187 196 199 189 183 183 180 181 172 166 170 171 168 167 169 168 166 151 145 154 159 152 156 164 187 186 179 154 141 136 125 116 85 30 333 334 331 331 309 270 257 251 257 241 237 254 247 233 265 281 53 77 88 79 312 294 285 320 270 101 188 223 272 306 109 284 282 312 290 269 261 248 251 259 260 261 261
193 197 197 191 185 181 185 189 188 191 189 192 184 181 179 171 158 165 164 161 163 167 166 154 151 146 151 163 158 152 155 167 179 185 175 152 136 136 133 130 109 88 260 353 339 342 295 231 233 235 239 251 266 281 299 290 272 131 107 330 304 292 293 294 300 306 301 352 250 204 280 294 315 299 299 281 265 267 274 292 323 286 283 280 275
199 199 184 185 188 188 184 190 190 183 189 188 184 180 176 172 167 167 168 163 166 158 142 149 149 162 170 171 165 157 163 166 179 182 170 148 144 145 139 133 128 125 161 342 23 14 36 47 41 43 37 31 26 26 18 17 16 124 115 296 322 107 311 308 296 314 305 272 308 128 219 260 324 282 294 264 246 262 307 347 333 302 289 284 287
203 178 186 187 191 195 196 187 186 185 184 187 186 180 179 175 170 167 165 164 162 168 158 158 162 158 169 181 177 173 170 162 176 175 166 145 150 156 154 137 140 154 183 170 155 128 87 51 27 19 28 27 28 31 23 25 27 27 50 52 112 342 304 301 299 313 312 316 49 193 242 271 340 324 337 326 321 124 150 261 286 292 302 301 320